Temperature
6 5 5 6 6 6 6 6 6 6 6 6 6 6 6 6 6 5 5 5 5 5 5 5 5 5 5 5 5 5 5 5 5 5 5 5 5 5 5 5 5 5 5
5 5 5 5 5 5 5 5 5 5 5 5 5 5 5 5 5 5 5 5 5 5 5 5 5 5 5 5 5 5 5 5 4 4 4 4 4 4 4 4 4 4 4
5 4 5 5 5 5 5 5 5 5 5 5 5 5 5 5 5 5 5 4 4 5 5 5 5 5 5 4 4 4 4 4 4 4 4 4 4 4 4 4 4 3 3
4 4 4 4 4 4 4 4 4 4 4 4 4 4 4 4 4 4 4 4 4 4 4 4 4 4 4 4 4 4 4 4 3 3 3 3 3 3 3 3 3 3 3
3 4 4 4 4 4 4 4 4 4 4 4 4 4 4 4 4 4 4 4 4 4 4 4 4 4 3 3 3 3 3 3 3 3 3 3 3 3 3 2 2 2 2
3 3 3 3 3 3 3 3 3 3 3 3 3 3 4 4 4 4 3 4 4 3 3 3 3 3 3 3 3 3 3 3 2 2 2 2 2 2 2 2 2 2 1
2 3 2 2 2 3 3 3 3 3 3 3 3 3 3 3 3 3 3 3 3 3 3 3 3 3 3 2 2 2 2 2 2 2 2 2 2 2 2 2 1 1 1
2 2 2 2 2 2 2 2 2 2 2 2 2 2 3 3 2 2 2 2 2 2 2 2 2 2 2 2 2 2 2 2 2 2 2 2 1 1 1 1 1 1 0
2 2 2 2 1 2 2 2 2 2 2 2 2 2 2 2 2 2 2 2 2 2 2 2 2 2 2 1 1 1 1 1 1 1 1 1 1 1 0 0 0 -0 -0
1 1 1 1 1 1 1 1 1 1 1 1 1 1 1 1 1 1 1 1 1 1 1 1 1 1 1 1 1 1 1 1 1 1 1 0 0 0 -0 -0 -0 -1 -1
0 0 0 0 0 0 0 0 0 0 0 0 0 0 0 0 0 1 1 1 0 0 0 0 0 0 0 0 0 0 0 0 -0 -0 -0 -0 -0 -0 -1 -1 -1 -1 -1
-0 -0 -0 -0 0 0 0 0 -0 -0 -0 -0 -0 -0 -0 -0 -0 0 0 0 -0 -0 -0 -0 -0 -0 -0 -0 -0 -0 -0 -0 -1 -1 -1 -1 -1 -1 -1 -1 -1 -1 -1
-1 -1 -1 -0 -0 -0 -0 -0 -1 -1 -1 -1 -1 -1 -1 -1 -1 -1 -1 -1 -1 -1 -1 -1 -1 -1 -1 -1 -1 -1 -1 -1 -1 -1 -1 -1 -2 -2 -1 -2 -2 -2 -2
-1 -1 -1 -1 -1 -1 -1 -1 -1 -1 -1 -1 -1 -1 -1 -1 -1 -1 -1 -1 -1 -1 -1 -1 -2 -2 -2 -2 -2 -2 -2 -2 -2 -2 -2 -2 -2 -2 -2 -2 -2 -2 -2
-2 -2 -2 -1 -1 -1 -1 -1 -1 -1 -1 -1 -1 -2 -2 -2 -2 -2 -2 -2 -2 -2 -2 -2 -2 -2 -2 -2 -2 -2 -2 -2 -3 -3 -3 -3 -3 -3 -3 -3 -3 -3 -3
-2 -2 -2 -2 -2 -2 -2 -2 -2 -2 -2 -2 -2 -2 -2 -2 -2 -2 -2 -2 -2 -2 -2 -3 -3 -3 -3 -3 -3 -3 -3 -3 -3 -3 -3 -3 -3 -3 -3 -3 -3 -4 -4
-3 -3 -3 -3 -3 -3 -3 -2 -3 -3 -3 -3 -3 -3 -3 -3 -3 -3 -3 -3 -3 -3 -3 -3 -3 -3 -3 -3 -3 -4 -4 -4 -4 -4 -4 -4 -4 -4 -4 -4 -4 -4 -4
-4 -4 -3 -3 -3 -3 -3 -3 -3 -3 -3 -3 -3 -3 -3 -3 -3 -3 -3 -3 -3 -3 -3 -3 -4 -4 -4 -4 -4 -4 -4 -4 -4 -4 -4 -4 -4 -5 -5 -5 -5 -5 -5
-4 -4 -4 -4 -4 -4 -4 -4 -4 -4 -4 -4 -4 -4 -4 -4 -4 -4 -4 -4 -4 -4 -4 -4 -4 -4 -4 -4 -5 -5 -5 -5 -5 -5 -5 -5 -5 -5 -5 -5 -5 -5 -5
-5 -5 -5 -5 -5 -5 -5 -5 -5 -5 -5 -5 -5 -5 -5 -4 -4 -4 -4 -4 -4 -5 -5 -5 -5 -5 -5 -5 -5 -5 -5 -5 -5 -5 -5 -5 -5 -5 -5 -5 -6 -6 -6
-5 -5 -5 -5 -5 -5 -6 -6 -6 -6 -6 -6 -5 -5 -5 -5 -5 -5 -5 -5 -5 -5 -5 -5 -5 -5 -5 -5 -5 -5 -5 -5 -5 -5 -6 -6 -6 -6 -6 -6 -6 -6 -6
-6 -6 -6 -6 -6 -6 -6 -6 -6 -6 -6 -6 -6 -6 -6 -6 -6 -6 -6 -6 -6 -6 -6 -6 -6 -6 -6 -6 -6 -6 -6 -6 -6 -6 -6 -6 -6 -6 -6 -6 -6 -6 -7
-7 -7 -7 -7 -7 -7 -7 -7 -7 -7 -7 -7 -7 -7 -7 -6 -6 -6 -6 -6 -6 -6 -6 -6 -6 -6 -6 -6 -6 -6 -6 -6 -6 -6 -6 -6 -6 -6 -6 -6 -7 -7 -7
-7 -7 -7 -7 -7 -7 -7 -7 -7 -7 -7 -7 -7 -7 -7 -7 -7 -7 -7 -7 -7 -7 -7 -7 -7 -7 -7 -7 -7 -7 -7 -7 -7 -6 -6 -7 -7 -7 -7 -7 -7 -7 -7
-8 -8 -8 -8 -8 -8 -8 -8 -8 -8 -7 -8 -8 -8 -8 -8 -7 -7 -7 -7 -7 -7 -7 -7 -7 -7 -7 -7 -7 -7 -7 -7 -7 -7 -7 -7 -7 -7 -7 -7 -7 -8 -8
-9 -8 -9 -9 -8 -8 -8 -8 -8 -8 -8 -8 -8 -8 -8 -8 -8 -8 -8 -8 -8 -8 -8 -8 -8 -8 -8 -8 -8 -7 -7 -7 -7 -7 -7 -7 -7 -7 -8 -8 -8 -8 -8
Wind_Speed
1 2 2 2 2 2 2 3 3 2 2 3 3 3 3 3 3 3 4 4 5 5 4 5 5 4 4 3 3 3 3 3 4 3 2 1 2 2 2 3 4 5 5
2 1 2 2 1 2 2 3 2 2 2 3 3 3 4 4 4 4 5 5 5 6 6 5 5 4 4 4 3 4 4 4 4 4 2 2 2 3 2 2 2 3 4
1 1 2 2 2 2 3 2 2 3 3 3 3 4 4 4 4 5 5 5 6 6 6 6 6 5 5 4 4 4 4 3 3 4 3 2 2 1 1 1 1 2 4
1 1 2 3 3 3 3 2 2 2 3 3 3 4 4 4 4 4 5 5 5 5 5 5 6 6 6 6 5 4 4 4 3 3 3 2 2 1 1 2 2 2 2
1 2 3 3 3 2 2 2 2 2 3 3 3 3 3 4 4 4 4 5 5 5 4 5 5 6 6 6 5 5 5 4 4 4 3 2 2 2 3 2 3 2 2
2 3 3 2 2 3 3 2 2 2 3 3 3 3 3 3 4 5 4 4 4 5 5 4 4 4 5 6 6 7 7 6 6 5 4 4 4 3 3 3 3 2 3
2 3 3 3 3 3 3 2 3 3 2 3 3 3 4 4 5 5 5 3 4 4 4 4 2 2 3 3 3 3 4 6 7 6 6 5 5 5 5 4 4 3 4
3 3 3 3 3 2 2 3 3 3 3 3 3 3 3 3 4 5 4 3 2 3 3 4 4 3 2 3 2 1 1 2 3 4 4 5 4 4 5 4 3 2 1
4 4 3 3 3 3 3 3 3 2 2 2 2 2 3 3 3 4 3 2 2 1 1 2 3 3 4 4 3 2 1 1 1 2 4 4 5 6 5 3 3 2 2
4 4 3 3 3 3 3 3 2 2 2 2 1 1 2 2 3 3 3 2 2 1 1 0 2 3 4 4 3 3 2 2 1 0 1 1 1 2 4 4 4 3 2
3 3 2 2 2 3 2 2 1 2 2 1 1 1 1 1 2 2 3 2 2 2 1 0 0 2 2 3 3 3 3 2 1 1 1 1 1 0 1 2 3 3 3
2 2 2 2 1 1 1 1 1 2 2 1 1 1 0 0 1 2 3 3 3 2 2 1 1 1 1 1 1 2 2 2 1 1 1 1 0 0 0 1 1 1 1
1 2 2 1 0 0 1 1 1 1 2 1 1 1 0 1 1 2 2 2 2 2 2 2 1 2 2 1 1 2 1 1 2 1 1 1 1 1 1 1 2 2 2
1 1 1 0 0 1 1 1 1 2 2 2 1 1 1 1 1 1 1 1 2 2 2 2 3 3 3 2 2 1 1 1 2 2 1 1 1 1 0 0 0 0 1
1 1 1 0 1 1 1 0 1 1 2 3 2 2 2 1 1 2 2 2 2 2 2 2 2 2 2 2 1 1 1 1 1 1 1 1 1 0 0 0 0 0 0
1 1 1 0 1 1 1 2 4 2 3 2 2 2 1 2 2 3 3 3 3 4 3 2 1 1 1 1 1 1 1 1 0 1 1 1 1 1 1 0 0 1 1
1 1 1 1 1 1 1 2 3 4 6 6 5 5 4 4 4 4 4 5 4 4 3 2 1 1 1 1 0 0 0 0 0 1 1 1 1 1 1 1 1 1 1
1 1 1 1 1 1 2 2 3 3 3 3 4 5 5 5 5 5 5 5 3 3 2 1 1 1 0 0 0 0 0 0 0 0 1 1 1 1 1 2 2 2 2
2 1 1 2 2 2 2 3 3 4 3 3 3 4 5 5 6 6 5 3 3 2 2 1 1 1 0 0 0 0 0 1 1 0 1 1 1 1 2 2 2 3 2
2 3 2 2 3 3 3 3 3 3 3 3 3 2 2 3 3 4 3 3 2 2 2 1 1 1 1 0 0 0 1 1 1 1 1 1 1 2 2 3 2 2 2
2 3 4 4 3 3 3 3 3 3 3 2 2 3 4 3 3 3 2 2 2 2 2 1 1 2 1 1 1 1 1 1 1 1 1 2 2 2 2 2 2 2 2
3 3 3 3 3 3 3 3 3 3 3 3 3 3 5 4 3 2 2 2 2 2 2 1 1 1 1 1 1 1 1 1 2 2 2 2 2 2 2 2 2 2 2
3 3 3 3 3 3 3 3 3 2 2 3 3 3 3 3 3 2 2 2 2 2 2 2 1 2 2 2 1 1 2 2 2 2 2 2 2 2 2 2 3 3 3
3 3 3 3 3 2 2 2 2 2 2 2 2 2 2 3 3 3 2 2 2 2 2 2 2 2 3 3 3 2 2 3 3 3 3 3 2 2 2 2 3 3 3
3 3 3 2 2 2 2 2 2 2 2 2 2 2 2 2 2 2 2 2 2 2 3 3 2 3 4 4 4 4 5 4 4 3 3 2 2 2 3 3 3 3 3
3 3 2 2 2 2 1 1 2 2 1 1 1 1 1 1 1 2 2 2 2 2 3 3 3 4 5 5 6 6 5 5 5 5 3 3 3 3 3 3 3 3 3
Wind_Direction
219 218 210 215 210 207 213 225 220 212 203 217 220 212 208 208 203 199 204 199 207 213 211 206 214 210 206 198 196 199 197 187 218 254 261 261 215 218 236 227 232 233 238
233 234 232 229 211 210 224 233 219 207 208 217 216 215 213 212 205 205 209 206 206 210 213 212 217 211 211 204 202 208 206 195 199 224 242 238 236 221 212 226 251 250 246
254 241 245 244 228 228 233 231 221 211 211 216 214 218 217 215 212 214 209 212 215 216 213 213 216 207 216 212 210 212 207 201 197 202 221 229 245 231 230 261 257 262 262
274 254 250 248 237 228 223 222 222 217 213 219 223 227 224 219 220 221 215 216 219 218 214 213 215 211 215 213 213 212 202 194 191 194 206 214 226 223 187 235 275 275 283
263 260 253 251 242 227 218 219 222 224 230 224 223 230 228 220 222 218 217 214 211 213 217 217 217 218 222 220 215 208 198 194 191 197 204 204 211 198 211 214 246 273 289
245 260 261 244 231 225 224 219 222 233 237 226 220 219 226 233 234 224 217 211 207 208 213 217 216 216 225 228 225 216 205 200 201 206 211 212 222 216 205 205 215 241 275
257 261 260 240 224 227 226 220 223 233 232 228 225 217 221 233 230 220 215 206 208 211 207 204 216 223 219 208 220 223 223 221 217 212 211 215 212 208 193 206 216 229 247
258 258 253 235 229 224 221 228 234 233 229 233 231 224 223 235 228 218 206 199 198 205 204 200 197 199 203 181 169 165 216 245 231 219 216 217 213 202 198 204 208 214 264
265 258 250 235 228 224 228 232 236 223 228 236 228 219 223 234 219 202 186 174 170 179 194 191 190 194 200 181 167 168 201 293 297 242 237 227 223 217 197 164 170 190 264
277 271 261 243 226 224 231 235 230 204 212 214 216 212 212 226 207 186 164 146 148 138 102 160 202 196 194 186 180 178 200 232 195 49 42 13 217 210 209 195 189 199 235
290 289 279 255 232 223 226 231 203 180 172 182 182 196 206 216 205 169 150 145 157 146 145 143 208 192 194 196 194 198 206 199 162 149 127 89 63 79 166 190 194 196 212
299 292 285 270 249 207 176 192 165 153 152 161 143 135 239 213 151 159 150 149 139 134 149 148 139 106 128 173 194 178 168 147 126 127 137 164 176 199 180 147 158 175 203
312 293 277 268 267 184 162 159 145 148 152 160 161 168 147 94 93 107 129 142 140 129 137 145 126 91 65 73 99 127 124 124 136 149 176 213 209 184 142 98 83 87 59
338 318 290 159 70 50 75 146 157 168 167 163 168 163 138 111 130 131 125 123 118 109 111 114 96 81 65 60 58 61 75 146 163 174 170 173 133 108 119 158 185 112 55
350 346 6 66 119 86 61 85 159 187 183 173 180 173 162 179 210 165 146 149 151 146 118 92 82 82 82 72 64 68 73 97 120 157 161 162 162 144 232 221 199 91 170
1 349 1 65 85 102 98 59 47 70 86 99 121 129 115 123 121 123 124 119 121 129 111 116 117 117 128 129 122 98 93 116 156 162 164 176 187 197 211 191 141 177 215
31 3 4 61 84 93 109 112 88 60 61 67 73 82 84 89 94 98 99 97 97 100 96 115 125 129 132 135 144 171 256 245 202 173 178 197 210 206 198 208 223 221 233
21 25 51 66 70 75 87 99 105 102 81 54 51 63 73 78 81 85 90 87 79 70 79 100 117 129 133 135 182 277 273 282 251 196 198 213 216 210 206 214 224 226 235
31 38 54 67 70 73 81 88 90 89 85 73 59 49 54 67 70 69 70 77 86 70 61 60 59 67 62 50 277 270 269 276 270 252 245 229 213 210 219 223 229 234 238
36 37 51 71 78 82 82 84 84 83 78 69 56 37 32 53 63 52 49 60 67 58 50 47 36 32 27 10 321 285 282 285 276 255 248 240 230 220 223 223 226 229 233
42 49 53 67 74 78 81 81 80 81 77 67 52 42 49 61 65 57 53 52 50 41 32 30 24 12 3 356 335 293 277 277 271 254 240 238 232 238 237 229 225 220 219
50 56 60 69 70 72 76 77 78 75 67 62 49 43 45 48 52 52 45 38 33 28 21 21 13 357 342 325 315 294 273 261 252 241 245 253 254 248 237 228 224 221 216
56 59 60 61 66 69 65 64 66 69 65 55 49 42 38 39 39 36 31 24 21 16 12 16 6 356 0 357 334 284 261 254 249 239 244 253 253 242 233 228 221 219 221
58 63 65 62 61 64 64 62 60 60 59 53 45 38 31 26 26 23 20 15 10 7 5 2 349 340 339 344 335 315 289 272 262 248 240 245 243 241 239 229 225 222 224
54 60 63 64 63 63 60 56 53 50 46 39 35 30 23 17 13 9 7 4 2 0 350 347 344 338 329 322 317 310 306 298 284 268 247 228 230 232 233 227 223 218 219
46 49 52 53 52 51 52 50 43 40 38 24 18 14 7 360 350 345 346 348 341 334 330 330 327 321 315 311 307 306 306 304 292 283 262 226 223 224 217 220 216 215 213
Height
1465 1465 1466 1466 1467 1467 1468 1469 1470 1471 1472 1472 1473 1474 1475 1476 1477 1478 1479 1480 1481 1483 1484 1485 1486 1488 1489 1490 1492 1493 1494 1495 1495 1495 1496 1497 1498 1499 1500 1500 1501 1502 1503
1462 1463 1463 1463 1463 1464 1465 1466 1466 1467 1468 1469 1470 1470 1471 1472 1473 1474 1474 1475 1477 1478 1479 1481 1481 1483 1484 1485 1487 1487 1489 1490 1491 1490 1491 1492 1493 1494 1495 1495 1496 1497 1498
1460 1459 1459 1460 1460 1460 1461 1462 1463 1464 1464 1465 1466 1466 1467 1468 1468 1469 1470 1472 1473 1474 1475 1476 1477 1479 1479 1480 1482 1483 1484 1485 1486 1486 1486 1488 1489 1490 1491 1491 1492 1492 1493
1456 1456 1456 1456 1456 1457 1457 1458 1459 1460 1461 1461 1462 1462 1463 1464 1464 1465 1466 1467 1468 1469 1471 1472 1473 1474 1475 1476 1477 1478 1479 1480 1481 1482 1482 1483 1484 1485 1486 1487 1487 1488 1488
1453 1453 1453 1453 1453 1454 1454 1455 1456 1456 1457 1457 1458 1458 1459 1459 1460 1461 1462 1463 1464 1465 1466 1468 1469 1469 1471 1472 1473 1473 1474 1475 1476 1477 1477 1478 1479 1480 1481 1482 1482 1483 1483
1450 1450 1450 1450 1450 1450 1451 1451 1452 1452 1453 1453 1454 1454 1454 1455 1456 1457 1458 1459 1460 1461 1462 1463 1464 1465 1466 1468 1469 1469 1470 1471 1471 1472 1472 1473 1474 1476 1477 1477 1478 1478 1478
1446 1446 1446 1447 1447 1447 1448 1448 1448 1448 1449 1449 1450 1450 1450 1451 1452 1453 1454 1455 1456 1457 1458 1459 1460 1461 1462 1463 1464 1465 1466 1467 1468 1469 1468 1469 1470 1471 1472 1473 1474 1474 1474
1443 1443 1443 1443 1444 1444 1444 1444 1444 1445 1445 1445 1446 1446 1447 1447 1448 1449 1450 1451 1452 1453 1454 1455 1456 1457 1458 1459 1459 1460 1461 1462 1463 1464 1465 1465 1467 1468 1469 1469 1469 1470 1470
1440 1440 1440 1440 1440 1440 1440 1440 1441 1441 1441 1442 1442 1443 1443 1444 1445 1446 1447 1447 1448 1449 1450 1451 1452 1453 1454 1455 1456 1456 1457 1458 1459 1460 1461 1461 1462 1463 1464 1465 1465 1465 1465
1437 1437 1437 1437 1437 1437 1437 1437 1437 1438 1438 1439 1439 1440 1440 1441 1442 1442 1443 1444 1445 1446 1447 1448 1449 1450 1451 1451 1452 1453 1453 1454 1455 1456 1457 1457 1458 1459 1460 1461 1461 1462 1461
1434 1434 1434 1434 1434 1434 1434 1434 1435 1435 1435 1436 1437 1437 1438 1439 1439 1440 1441 1441 1442 1443 1444 1445 1446 1447 1447 1448 1449 1450 1450 1451 1452 1452 1452 1453 1454 1455 1456 1457 1457 1458 1458
1432 1431 1431 1431 1431 1431 1431 1432 1432 1432 1433 1433 1434 1435 1435 1436 1437 1438 1438 1439 1440 1441 1441 1442 1443 1444 1445 1445 1446 1447 1447 1448 1448 1449 1449 1450 1450 1451 1452 1452 1453 1453 1454
1429 1429 1429 1429 1429 1429 1429 1429 1430 1430 1431 1431 1432 1432 1433 1434 1435 1435 1436 1437 1437 1438 1439 1440 1441 1441 1442 1442 1443 1444 1444 1445 1445 1445 1446 1446 1447 1448 1448 1449 1449 1449 1450
1426 1426 1426 1426 1427 1427 1427 1427 1428 1428 1429 1429 1430 1430 1431 1432 1433 1433 1434 1434 1435 1435 1437 1438 1438 1439 1439 1440 1440 1441 1442 1442 1443 1443 1443 1444 1444 1444 1445 1445 1445 1446 1446
1424 1424 1424 1424 1425 1425 1425 1426 1426 1427 1427 1428 1429 1429 1429 1430 1431 1432 1432 1432 1433 1434 1434 1435 1436 1436 1437 1437 1438 1439 1439 1440 1440 1440 1441 1441 1441 1441 1442 1442 1442 1442 1442
1422 1422 1422 1423 1423 1423 1424 1424 1425 1425 1426 1427 1428 1428 1429 1429 1430 1430 1431 1431 1431 1432 1432 1433 1433 1434 1435 1435 1436 1436 1437 1437 1438 1438 1438 1438 1438 1438 1439 1439 1439 1439 1439
1420 1421 1421 1421 1421 1422 1422 1422 1423 1424 1425 1426 1426 1427 1427 1428 1428 1428 1429 1429 1430 1430 1431 1431 1432 1432 1433 1433 1434 1434 1434 1435 1435 1435 1435 1435 1436 1436 1436 1436 1436 1436 1436
1419 1419 1420 1420 1420 1420 1421 1421 1422 1422 1423 1424 1425 1426 1426 1426 1427 1427 1427 1428 1428 1429 1429 1429 1430 1431 1431 1431 1432 1432 1432 1432 1432 1432 1432 1433 1433 1433 1433 1433 1434 1434 1433
1418 1418 1418 1418 1419 1419 1420 1420 1421 1421 1422 1423 1424 1425 1425 1425 1426 1426 1426 1427 1427 1427 1428 1428 1429 1429 1429 1429 1430 1430 1430 1430 1430 1430 1430 1430 1430 1430 1430 1431 1431 1431 1431
1417 1417 1417 1417 1417 1418 1419 1419 1420 1421 1422 1422 1423 1424 1424 1424 1424 1425 1425 1426 1426 1426 1427 1427 1427 1427 1427 1427 1427 1427 1427 1427 1427 1427 1427 1427 1427 1427 1427 1428 1428 1428 1428
1416 1416 1416 1416 1417 1418 1418 1419 1420 1421 1422 1422 1423 1423 1424 1424 1424 1424 1424 1424 1425 1425 1425 1425 1425 1425 1425 1425 1425 1425 1425 1424 1424 1424 1424 1424 1424 1424 1424 1425 1425 1425 1425
1416 1416 1416 1417 1418 1418 1419 1419 1420 1421 1421 1422 1422 1423 1423 1423 1423 1423 1423 1423 1424 1424 1424 1424 1424 1424 1423 1423 1423 1422 1422 1422 1422 1422 1421 1421 1421 1421 1421 1421 1422 1422 1422
1416 1416 1417 1417 1418 1418 1419 1419 1420 1420 1421 1421 1421 1422 1422 1422 1422 1422 1422 1422 1422 1422 1422 1422 1422 1422 1421 1421 1421 1420 1420 1419 1419 1419 1419 1418 1418 1418 1418 1418 1419 1419 1419
1417 1417 1417 1417 1418 1418 1419 1419 1420 1420 1420 1420 1421 1421 1421 1421 1421 1421 1421 1421 1421 1421 1420 1420 1420 1420 1419 1419 1418 1418 1417 1417 1417 1416 1416 1415 1415 1415 1415 1415 1415 1415 1415
1417 1417 1417 1418 1418 1418 1419 1419 1419 1419 1420 1420 1420 1420 1420 1420 1420 1419 1419 1419 1419 1419 1419 1418 1418 1417 1417 1416 1416 1415 1415 1414 1414 1413 1413 1412 1412 1412 1412 1412 1412 1412 1412
1417 1417 1417 1417 1418 1418 1418 1418 1418 1419 1419 1419 1419 1419 1419 1418 1418 1418 1418 1417 1417 1417 1416 1416 1415 1415 1414 1414 1413 1413 1412 1411 1411 1410 1410 1409 1409 1409 1409 1409 1409 1409 1410